TimeCDT,TemperatureF,Dew PointF,Humidity,Sea Level PressureIn,VisibilityMPH,Wind Direction,Wind SpeedMPH,Gust SpeedMPH,PrecipitationIn,Events,Conditions,WindDirDegrees,DateUTC
12:15 AM,59.0,48.4,68,29.93,10.0,NW,3.5,-,N/A,,Drizzle,310,2013-03-17 05:15:00
12:35 AM,57.7,48.7,72,29.93,10.0,Calm,Calm,-,N/A,,Overcast,0,2013-03-17 05:35:00
12:55 AM,57.2,49.1,74,29.92,10.0,Calm,Calm,-,N/A,Rain,Light Rain,0,2013-03-17 05:55:00
1:15 AM,55.6,50.2,82,29.92,10.0,Calm,Calm,-,0.01,,Drizzle,0,2013-03-17 06:15:00
1:35 AM,54.1,51.8,92,29.92,10.0,Calm,Calm,-,0.01,Rain,Light Rain,0,2013-03-17 06:35:00
1:55 AM,53.8,52.2,94,29.93,10.0,WNW,3.5,-,0.01,Rain,Light Rain,300,2013-03-17 06:55:00
2:15 AM,54.0,51.8,92,29.93,7.0,Calm,Calm,-,0.04,Rain,Heavy Rain,0,2013-03-17 07:15:00
2:35 AM,53.6,52.0,94,29.94,7.0,Calm,Calm,-,0.06,Rain,Rain,0,2013-03-17 07:35:00
2:55 AM,53.2,52.0,95,29.93,7.0,Calm,Calm,-,0.08,Rain,Light Rain,0,2013-03-17 07:55:00
3:15 AM,52.9,51.8,96,29.92,7.0,Calm,Calm,-,N/A,Rain,Light Rain,0,2013-03-17 08:15:00
3:35 AM,52.7,52.0,97,29.93,5.0,WNW,3.5,-,N/A,,Overcast,290,2013-03-17 08:35:00
3:55 AM,52.7,51.8,97,29.92,7.0,Calm,Calm,-,N/A,,Overcast,0,2013-03-17 08:55:00
4:15 AM,52.7,52.0,97,29.93,5.0,Calm,Calm,-,N/A,,Overcast,0,2013-03-17 09:15:00
4:35 AM,52.7,50.7,93,29.93,10.0,Calm,Calm,-,N/A,,Overcast,0,2013-03-17 09:35:00
4:55 AM,52.2,51.4,97,29.93,5.0,Calm,Calm,-,N/A,,Overcast,0,2013-03-17 09:55:00
5:15 AM,52.2,51.6,98,29.93,5.0,Calm,Calm,-,N/A,,Overcast,0,2013-03-17 10:15:00
5:35 AM,51.6,51.1,98,29.94,4.0,Calm,Calm,-,N/A,,Overcast,0,2013-03-17 10:35:00
5:55 AM,51.3,51.1,99,29.95,2.5,NW,3.5,-,N/A,,Overcast,310,2013-03-17 10:55:00
6:15 AM,51.4,49.6,94,29.96,10.0,Calm,Calm,-,N/A,,Overcast,0,2013-03-17 11:15:00
6:35 AM,51.3,48.9,92,29.96,10.0,Calm,Calm,-,N/A,,Overcast,0,2013-03-17 11:35:00
6:55 AM,50.9,49.1,94,29.97,10.0,Calm,Calm,-,N/A,,Overcast,0,2013-03-17 11:55:00
7:15 AM,50.9,49.6,95,29.97,10.0,Calm,Calm,-,N/A,,Overcast,0,2013-03-17 12:15:00
7:35 AM,50.9,49.6,95,29.98,10.0,Calm,Calm,-,N/A,,Overcast,0,2013-03-17 12:35:00
7:55 AM,51.8,50.4,95,29.98,10.0,Calm,Calm,-,N/A,,Overcast,0,2013-03-17 12:55:00
8:15 AM,52.3,49.5,90,29.98,10.0,NE,5.8,-,N/A,,Overcast,40,2013-03-17 13:15:00
8:35 AM,52.3,49.3,89,29.99,7.0,NNE,5.8,-,N/A,,Overcast,30,2013-03-17 13:35:00
8:55 AM,52.2,49.1,89,30.00,7.0,North,5.8,-,N/A,,Overcast,10,2013-03-17 13:55:00
9:15 AM,52.0,48.6,88,30.01,7.0,North,4.6,-,N/A,,Overcast,10,2013-03-17 14:15:00
9:35 AM,51.8,48.7,89,30.01,7.0,North,4.6,-,N/A,,Overcast,350,2013-03-17 14:35:00
9:55 AM,51.3,48.2,89,30.01,5.0,North,3.5,-,N/A,,Overcast,10,2013-03-17 14:55:00
10:15 AM,51.3,47.5,87,30.00,7.0,NE,3.5,-,N/A,,Overcast,40,2013-03-17 15:15:00
10:35 AM,51.4,47.3,86,30.00,7.0,NE,8.1,-,N/A,,Overcast,50,2013-03-17 15:35:00
10:55 AM,51.1,46.8,85,30.00,7.0,NNE,5.8,-,N/A,,Overcast,20,2013-03-17 15:55:00
11:15 AM,51.8,46.8,83,29.99,7.0,NE,4.6,-,N/A,,Overcast,40,2013-03-17 16:15:00
11:35 AM,51.8,46.8,83,29.99,5.0,Calm,Calm,-,N/A,,Haze,0,2013-03-17 16:35:00
11:55 AM,52.2,46.6,81,29.98,7.0,Calm,Calm,-,N/A,,Overcast,0,2013-03-17 16:55:00
12:15 PM,53.1,46.9,80,29.97,7.0,Calm,Calm,-,N/A,,Overcast,0,2013-03-17 17:15:00
12:35 PM,54.0,47.3,78,29.97,7.0,Calm,Calm,-,N/A,,Overcast,0,2013-03-17 17:35:00
12:55 PM,54.9,47.5,76,29.96,7.0,East,4.6,-,N/A,,Overcast,90,2013-03-17 17:55:00
1:15 PM,55.8,47.8,75,29.95,7.0,NE,6.9,-,N/A,,Overcast,50,2013-03-17 18:15:00
1:35 PM,57.2,48.6,73,29.93,7.0,NE,5.8,-,N/A,,Mostly Cloudy,40,2013-03-17 18:35:00
1:55 PM,57.2,48.0,71,29.94,10.0,ENE,5.8,-,N/A,,Mostly Cloudy,60,2013-03-17 18:55:00
2:15 PM,57.9,48.2,70,29.92,10.0,North,6.9,-,N/A,,Overcast,360,2013-03-17 19:15:00
2:35 PM,58.5,48.2,69,29.90,10.0,ENE,6.9,-,N/A,,Mostly Cloudy,70,2013-03-17 19:35:00
2:55 PM,58.5,47.8,68,29.89,10.0,ENE,5.8,-,N/A,,Mostly Cloudy,60,2013-03-17 19:55:00
3:15 PM,58.5,47.5,67,29.89,10.0,Calm,Calm,-,N/A,,Mostly Cloudy,0,2013-03-17 20:15:00
3:35 PM,58.3,47.7,68,29.89,10.0,Calm,Calm,-,N/A,,Mostly Cloudy,0,2013-03-17 20:35:00
3:55 PM,59.0,47.8,66,29.88,10.0,NE,4.6,-,N/A,,Mostly Cloudy,50,2013-03-17 20:55:00
4:15 PM,59.0,47.5,66,29.88,10.0,East,3.5,-,N/A,,Mostly Cloudy,80,2013-03-17 21:15:00
4:35 PM,60.1,48.0,64,29.88,10.0,ENE,8.1,-,N/A,,Overcast,60,2013-03-17 21:35:00
4:55 PM,59.7,47.5,64,29.88,10.0,NE,9.2,-,N/A,,Mostly Cloudy,40,2013-03-17 21:55:00
5:15 PM,56.1,46.4,70,29.90,10.0,NNE,11.5,-,N/A,,Overcast,20,2013-03-17 22:15:00
5:35 PM,54.7,45.1,70,29.92,10.0,North,11.5,-,N/A,,Overcast,360,2013-03-17 22:35:00
5:55 PM,53.2,43.7,70,29.92,10.0,NNE,8.1,-,N/A,,Overcast,30,2013-03-17 22:55:00
6:15 PM,52.7,43.5,71,29.93,10.0,North,5.8,-,N/A,,Overcast,360,2013-03-17 23:15:00
6:35 PM,52.5,44.4,74,29.93,10.0,NE,3.5,-,N/A,Rain,Rain,40,2013-03-17 23:35:00
6:55 PM,51.8,43.9,74,29.93,10.0,NNE,3.5,-,N/A,,Overcast,20,2013-03-17 23:55:00
7:15 PM,51.8,43.9,74,29.93,10.0,NE,3.5,-,N/A,,Overcast,50,2013-03-18 00:15:00
7:35 PM,51.8,43.3,73,29.93,10.0,Calm,Calm,-,N/A,,Overcast,0,2013-03-18 00:35:00
7:55 PM,51.4,43.0,73,29.93,10.0,Calm,Calm,-,N/A,,Overcast,0,2013-03-18 00:55:00
8:15 PM,50.9,42.8,74,29.94,10.0,Calm,Calm,-,N/A,,Overcast,0,2013-03-18 01:15:00
8:35 PM,50.9,42.8,74,29.93,10.0,Calm,Calm,-,N/A,,Mostly Cloudy,0,2013-03-18 01:35:00
8:55 PM,50.2,43.5,78,29.92,10.0,Calm,Calm,-,N/A,,Mostly Cloudy,0,2013-03-18 01:55:00
9:15 PM,49.8,43.7,79,29.92,10.0,Calm,Calm,-,N/A,,Mostly Cloudy,0,2013-03-18 02:15:00
9:35 PM,48.6,43.3,82,29.91,10.0,Calm,Calm,-,N/A,,Scattered Clouds,0,2013-03-18 02:35:00
9:55 PM,48.0,43.7,85,29.91,10.0,WSW,3.5,-,N/A,,Clear,250,2013-03-18 02:55:00
10:15 PM,47.7,43.3,85,29.91,10.0,Calm,Calm,-,N/A,,Clear,0,2013-03-18 03:15:00
10:35 PM,48.2,43.5,84,29.91,10.0,Calm,Calm,-,N/A,,Clear,0,2013-03-18 03:35:00
10:55 PM,47.5,43.5,86,29.91,10.0,SSW,3.5,-,N/A,,Clear,210,2013-03-18 03:55:00
11:15 PM,46.9,43.7,88,29.91,10.0,Calm,Calm,-,N/A,,Clear,0,2013-03-18 04:15:00
11:35 PM,46.2,43.5,90,29.90,10.0,Calm,Calm,-,N/A,,Clear,0,2013-03-18 04:35:00
11:55 PM,45.5,43.3,92,29.91,10.0,Calm,Calm,-,N/A,,Clear,0,2013-03-18 04:55:00